Regional Weather Roundup
Issued by NWS

Home | Current Version | Previous Version | Text Only | Print | Product List | Glossary On
Versions: 1 2 3 4 5 6 7 8 9 10 11 12 13 14 15 16 17 18 19 20 21 22 23 24 25 26 27 28 29 30 31 32 33 34 35 36 37 38 39 40 41 42 43 44 45 46 47 48 49 50
000
ASUS44 KLIX 241813
RWRLA
LOUISIANA WEATHER ROUNDUP
NATIONAL WEATHER SERVICE NEW ORLEANS LA
100 PM CDT WED MAY 24 2017

NOTE: "FAIR" INDICATES FEW OR NO CLOUDS BELOW 12,000 FEET WITH NO
      SIGNIFICANT WEATHER AND/OR OBSTRUCTIONS TO VISIBILITY.
      SKY/WX - SKY CONDITION AND SIGNIFICANT WEATHER.
      TMP - AIR TEMPERATURE.    DP   - DEWPOINT TEMPERATURE.
      RH  - RELATIVE HUMIDITY.  PRES - PRESSURE.
      HX  - HEAT INDEX.         WCI  - WIND CHILL INDEX.

*  THESE STATIONS ARE NOT NWS OR FAA STATIONS AND ARE NOT UNDER
   NWS QUALITY CONTROL.

LAZ040-048-061>063-065-066-069-241900-
SOUTHEAST LOUISIANA

CITY           SKY/WX    TMP DP  RH WIND       PRES   REMARKS
N.O. INTL ARPT MOSUNNY   75  53  46 NW12      29.71F
6HR MIN TEMP:  67; 6HR MAX TEMP:  75;

N.O. LAKEFRONT MOSUNNY   74  56  53 W21       29.72S
6HR MIN TEMP:  69; 6HR MAX TEMP:  75;

N.O. DOWNTOWN*   N/A     76  52  43 NW8G18      N/A
6HR MIN TEMP:  70; 6HR MAX TEMP:  76;

RESERVE*       FAIR      77  53  42 W15G23    29.72S
6HR MIN TEMP:  67; 6HR MAX TEMP:  77;

SLIDELL        MOSUNNY   75  52  44 NW9G21    29.69F
6HR MIN TEMP:  68; 6HR MAX TEMP:  75;

BATON ROUGE    MOSUNNY   74  51  44 NW17G26   29.72F
6HR MIN TEMP:  62; 6HR MAX TEMP:  75;

BOOTHVILLE     PTSUNNY   74  53  48 NW13G22   29.71S
6HR MIN TEMP:  70; 6HR MAX TEMP:  75; 6HR PCP: TRACE;

BELLE CHASSE   MOSUNNY   77  54  44 NW13G22   29.70F
BOGALUSA*      MOCLDY    74  52  45 W13       29.70F
6HR MIN TEMP:  66; 6HR MAX TEMP:  76;

GALLIANO*      CLEAR     75  49  40 W16       29.72S
6HR MIN TEMP:  69; 6HR MAX TEMP:  76;

NEW ROADS*     FAIR      73  48  40 NW15G25   29.73F
6HR MIN TEMP:  61; 6HR MAX TEMP:  74;

GONZALES*      MOCLDY    74  53  48 NW10G21   29.72F
6HR MIN TEMP:  65; 6HR MAX TEMP:  74;

HAMMOND*       PTSUNNY   75  48  38 NW12G21   29.71S
HOUMA*         NOT AVBL
PORT FOURCHON* CLEAR     73  54  49 NW18G24   29.73S

$$

LAZ041-044-053-054-241900-
SOUTHWEST LOUISIANA

CITY           SKY/WX    TMP DP  RH WIND       PRES   REMARKS
LAKE CHARLES   MOSUNNY   77  50  38 NW20G28   29.77F
6HR MIN TEMP:  62; 6HR MAX TEMP:  77;

LAFAYETTE      MOSUNNY   76  49  38 W20G26    29.75F
6HR MIN TEMP:  64; 6HR MAX TEMP:  76;

PATTERSON      MOSUNNY   75  53  46 NW17G25   29.75F
6HR MIN TEMP:  67; 6HR MAX TEMP:  75; 6HR PCP:  0.01;

SALT POINT       N/A     75  56  51 NW8G20    29.74F
6HR MIN TEMP:  67; 6HR MAX TEMP:  75;

NEW IBERIA     MOSUNNY   75  52  44 NW15      29.76F
6HR MIN TEMP:  64; 6HR MAX TEMP:  76; 6HR PCP: TRACE;

CHENAULT AIRPK SUNNY     77  50  38 NW21G30   29.77F

$$

LAZ027-028-241900-
CENTRAL LOUISIANA

CITY           SKY/WX    TMP DP  RH WIND       PRES   REMARKS
FORT POLK      MOSUNNY   73  47  40 NW20G31   29.75F
6HR MIN TEMP:  59; 6HR MAX TEMP:  73;

ALEXANDRIA INT PTSUNNY   71  50  47 NW17G26   29.72F
6HR MIN TEMP:  59; 6HR MAX TEMP:  73;

ALEXANDRIA     MOSUNNY   74  49  41 W21G30    29.72F
6HR MIN TEMP:  58; 6HR MAX TEMP:  74;


$$

LAZ001-002-241900-
NORTHWEST LOUISIANA

CITY           SKY/WX    TMP DP  RH WIND       PRES   REMARKS
SHREVEPORT     MOSUNNY   70  49  47 NW16G25   29.76S
6HR MIN TEMP:  56; 6HR MAX TEMP:  71;

BARKSDALE AFB  MOSUNNY   71  47  43 NW17G28   29.75F
6HR MIN TEMP:  56; 6HR MAX TEMP:  71;

DTN SHREVEPORT MOSUNNY   69  49  48 NW15G23   29.76F
6HR MIN TEMP:  57; 6HR MAX TEMP:  70;


$$

LAZ014-016-241900-
NORTHEAST LOUISIANA

CITY           SKY/WX    TMP DP  RH WIND       PRES   REMARKS
MONROE         PTSUNNY   69  49  48 NW21G28   29.70S
6HR MIN TEMP:  58; 6HR MAX TEMP:  71;

TALLULAH       MOSUNNY   71  51  49 W12G21    29.68S
6HR MIN TEMP:  58; 6HR MAX TEMP:  73;


$$




USA.gov is the U.S. government's official web portal to all federal, state and local government web resources and services.